SCP
0 -0 0 0 0 0 0 0 -0 -0 -0 -0 0 0 0 0 0 0 0 -0 -0 -0 -0 -0 -0 -0 -0 -0 0 0 0 0 0 -0 0 -0 -0 0 -0 -0 -0 -0 -0
0 0 0 0 0 0 0 -0 -0 -0 0 0 0 0 0 0 -0 -0 -0 -0 -0 -0 -0 -0 -0 0 0 0 -0 0 0 0 0 -0 0 -0 -0 0 -0 -0 -0 -0 -0
0 0 0 0 0 0 0 -0 -0 0 0 0 0 0 -0 -0 -0 -0 -0 -0 -0 -0 -0 -0 -0 -0 -0 0 -0 0 0 0 0 0 0 0 0 -0 -0 -0 -0 -0 -0
0 0 0 0 0 0 -0 -0 0 0 0 0 0 -0 -0 -0 -0 -0 -0 -0 -0 -0 -0 -0 -0 -0 0 0 0 0 0 0 0 0 0 0 0 -0 -0 -0 -0 -0 -0
0 0 0 0 0 0 0 0 0 0 0 0 0 -0 -0 0 0 -0 -0 0 0 -0 -0 -0 0 0 -0 -0 0 0 0 0 0 0 0 0 0 -0 -0 -0 -0 -0 -0
0 0 0 0 0 0 0 0 0 0 0 0 -0 -0 -0 -0 -0 0 0 0 0 0 -0 0 -0 -0 0 0 0 0 0 0 0 0 0 0 0 -0 -0 -0 -0 -0 -0
0 0 0 -0 -0 0 0 0 0 0 0 0 -0 -0 -0 -0 -0 -0 0 0 0 0 0 0 0 0 0 0 0 0 0 0 0 0 0 0 -0 -0 -0 -0 -0 -0 -0
0 -0 -0 0 0 -0 0 0 0 -0 -0 0 -0 0 -0 0 0 0 0 0 0 0 0 0 0 0 0 0 0 0 0 0 0 0 0 0 -0 -0 -0 -0 -0 -0 -0
0 -0 -0 0 0 -0 -0 0 0 0 -0 -0 -0 -0 -0 -0 0 0 0 0 0 0 0 0 0 0 0 0 0 0 0 0 0 0 0 0 0 -0 -0 -0 -0 -0 -0
-0 -0 -0 0 0 0 0 0 0 -0 0 0 0 -0 0 0 -0 -0 0 0 0 0 0 0 0 0 0 0 0 0 0 0 0 0 0 0 0 0 -0 -0 -0 -0 -0
-0 -0 -0 -0 0 0 0 0 0 0 0 0 0 0 0 -0 -0 0 0 0 0 0 0 0 0 0 0 0 0 0 0 0 0 0 0 0 0 0 -0 -0 -0 -0 0
0 -0 -0 -0 -0 0 0 0 0 0 0 0 0 0 0 0 0 0 0 0 -0 0 0 0 0 0 0 0 0 0 0 0 0 0 -0 -0 0 -0 -0 0 0 -0 -0
-0 -0 -0 -0 -0 0 0 0 0 0 0 0 0 0 0 0 0 0 0 0 0 0 0 0 0 0 0 0 0 0 0 0 0 0 0 0 -0 0 -0 0 0 -0 -0
-0 -0 -0 -0 -0 0 0 0 0 0 0 0 0 0 0 0 0 0 0 0 -0 0 0 0 -0 0 0 0 0 0 0 0 0 0 0 0 0 0 0 0 0 -0 -0
-0 -0 -0 -0 0 0 0 0 0 0 0 0 0 0 0 0 0 0 0 0 0 0 0 0 0 0 0 0 0 0 0 0 0 0 0 0 0 0 0 0 0 0 0
-0 -0 -0 -0 0 0 0 0 0 0 0 0 0 0 0 0 0 0 0 0 0 0 0 -0 0 -0 0 0 0 0 0 0 -0 0 0 0 0 0 0 0 0 0 0
-0 -0 -0 -0 0 0 0 0 0 0 0 0 0 0 0 0 0 0 0 0 0 0 0 0 -0 0 0 0 -0 -0 -0 -0 -0 0 0 0 0 0 0 0 0 0 0
-0 -0 -0 0 -0 -0 0 0 0 0 0 0 0 0 0 0 0 0 0 0 0 0 0 0 0 0 0 -0 -0 0 0 0 0 0 0 0 0 0 0 0 0 0 0
-0 -0 -0 0 0 -0 0 0 0 0 0 0 0 0 0 0 0 0 0 0 0 0 0 0 0 0 0 -0 -0 -0 0 -0 0 0 0 0 0 0 0 0 0 0 0
-0 -0 -0 0 0 -0 0 0 0 0 0 0 0 0 0 0 -0 0 0 0 0 0 0 0 0 -0 0 0 0 -0 0 0 0 0 0 0 0 0 0 0 0 0 0
-0 -0 -0 -0 -0 0 0 0 0 0 0 0 0 0 0 -0 -0 -0 0 0 0 0 0 0 0 0 -0 -0 0 -0 -0 0 0 0 0 0 0 0 0 0 0 0 0
-0 -0 -0 -0 -0 -0 0 0 0 0 0 0 0 0 0 0 0 -0 0 0 0 0 0 0 0 0 0 -0 0 0 0 0 0 0 0 0 0 0 0 0 0 0 0
-0 -0 -0 -0 -0 -0 0 0 0 0 0 0 0 0 0 0 0 0 0 0 -0 0 0 0 0 0 0 0 0 0 0 0 0 0 0 0 0 0 0 0 0 0 0
-0 0 -0 0 0 -0 -0 -0 -0 0 0 0 0 0 0 0 0 0 0 0 -0 0 0 -0 0 0 0 0 0 0 0 0 0 0 0 0 0 0 0 0 0 0 0
0 0 0 0 0 0 -0 -0 -0 -0 0 0 0 0 0 0 0 0 0 0 0 -0 -0 -0 0 0 0 0 0 0 0 0 0 0 0 0 0 0 0 0 0 0 0
0 0 0 0 0 0 -0 -0 -0 -0 0 0 0 0 0 0 0 0 -0 0 -0 -0 -0 -0 0 0 0 0 0 0 0 0 0 0 0 0 0 0 0 0 0 0 0
Wind_Speed_500mb
54 53 46 44 40 37 35 34 30 27 26 27 28 27 25 21 18 16 16 16 14 12 10 8 10 12 12 12 10 13 14 15 19 23 23 22 22 24 24 27 31 29 29
60 52 46 43 38 35 32 29 27 25 24 23 22 21 20 19 18 19 19 17 15 15 15 11 10 12 14 13 10 12 14 16 19 21 20 22 23 22 25 25 28 28 28
58 52 45 42 37 32 28 26 25 24 24 23 23 23 25 23 24 21 19 19 22 18 13 15 16 17 20 19 20 22 21 20 20 22 21 20 24 22 23 25 23 27 26
58 48 46 41 36 30 27 26 24 24 24 24 22 25 25 26 23 22 22 24 19 17 15 22 21 22 24 26 27 25 22 21 22 23 22 25 20 21 22 23 23 25 26
57 51 46 40 34 29 27 27 27 25 24 25 24 25 25 25 26 24 24 23 20 21 18 24 25 28 29 29 27 26 28 22 18 19 20 22 20 21 20 22 22 25 26
59 49 44 38 32 30 29 26 24 23 22 21 22 25 25 25 23 24 24 22 22 22 21 24 25 23 25 24 27 27 25 22 21 21 19 22 19 20 18 21 22 24 22
56 48 44 37 33 32 30 26 27 26 26 25 25 24 24 24 25 25 23 21 20 20 20 23 25 28 26 27 25 24 22 21 23 23 24 20 20 20 19 20 21 22 20
55 49 45 37 33 30 28 27 29 25 25 25 27 25 25 26 28 26 23 20 19 17 18 19 21 23 23 23 23 24 25 23 23 23 23 20 19 17 18 19 19 19 19
51 51 46 37 34 28 26 26 28 24 24 26 25 28 28 29 28 26 25 24 22 21 17 18 22 20 21 19 20 25 24 23 22 21 19 17 18 17 18 17 17 17 18
52 51 45 38 35 29 27 25 26 25 28 25 29 30 30 29 29 26 23 20 21 21 20 18 22 22 19 20 18 20 20 22 19 19 17 18 13 17 16 13 14 15 16
52 51 46 39 37 32 29 26 27 28 28 28 29 28 28 27 25 23 19 17 21 20 21 20 22 22 19 19 19 16 17 18 19 17 16 18 16 17 12 15 14 14 14
59 55 47 40 37 34 31 29 29 29 29 28 29 28 26 23 20 19 16 17 18 18 18 19 20 21 21 19 17 14 15 15 16 16 14 18 14 12 13 15 16 13 12
61 55 49 43 38 34 30 30 29 29 27 27 26 25 22 18 14 13 13 14 17 15 17 18 18 16 16 15 13 12 13 16 14 15 13 15 11 12 11 13 15 8 11
61 56 51 45 41 35 31 29 30 29 28 26 23 21 18 16 15 15 14 13 12 11 14 16 16 13 10 11 12 11 13 16 15 12 12 11 10 12 9 8 8 7 7
63 59 54 48 42 37 33 31 34 32 26 24 23 19 17 12 8 8 7 8 10 12 16 14 10 10 10 10 9 9 10 11 15 16 11 10 10 11 8 5 6 8 7
65 61 56 49 44 39 35 36 36 30 25 24 20 15 13 11 9 8 8 10 9 12 10 11 12 8 9 10 8 9 7 7 9 16 15 8 8 9 8 7 6 7 8
64 60 58 52 47 42 38 41 39 33 27 25 23 16 15 13 12 10 7 8 8 9 10 7 14 13 11 11 11 10 7 7 9 10 15 16 10 10 8 6 5 5 2
63 62 58 54 50 45 42 43 39 37 29 24 20 15 12 9 10 8 10 9 13 12 9 9 15 12 11 10 10 8 8 7 9 8 8 10 10 8 10 7 4 2 3
66 62 60 56 52 47 45 46 40 36 30 24 19 14 10 8 9 9 9 9 15 14 16 17 18 16 10 4 5 7 6 7 7 5 6 6 6 8 7 7 7 3 2
66 63 60 58 54 50 48 48 44 39 33 26 23 17 13 10 8 9 8 5 9 13 14 15 12 10 7 7 5 4 5 6 5 4 5 7 7 7 9 8 8 5 3
68 68 66 62 59 57 55 55 51 44 34 28 24 22 14 13 8 7 6 5 8 11 11 12 8 5 4 2 10 8 5 4 5 3 2 1 3 6 8 6 3 4 7
75 72 71 67 63 62 59 56 54 47 38 28 27 23 20 17 12 7 5 2 7 9 9 8 7 9 5 5 7 4 4 3 4 4 4 4 5 8 7 7 6 6 8
79 78 77 72 68 65 66 58 54 48 42 34 30 27 22 19 16 12 10 6 9 11 7 7 7 12 9 5 12 8 3 2 4 7 7 9 10 9 10 9 7 9 9
79 84 77 74 71 69 65 68 61 53 50 46 37 30 26 21 15 15 14 10 9 11 7 7 5 7 9 5 6 11 7 5 3 4 8 8 7 7 8 9 8 8 9
74 84 84 79 71 69 71 67 60 57 48 42 40 35 35 33 27 20 18 17 13 8 10 7 10 8 8 11 12 11 8 10 13 12 9 9 16 13 9 9 11 11 11
69 81 86 84 80 73 74 72 68 62 55 49 44 41 44 44 39 34 27 23 19 15 11 12 12 12 8 13 16 18 16 12 10 11 12 16 20 16 15 13 12 14 15
Wind_Direction_500mb
145 140 143 141 138 136 135 134 136 135 136 139 144 149 155 156 153 149 142 139 134 117 117 126 142 154 157 151 143 122 106 96 94 98 94 89 84 97 94 93 88 94 96
146 143 145 144 141 139 132 129 132 136 139 139 142 149 152 152 147 136 133 123 115 109 107 105 118 131 145 157 152 131 114 102 102 109 110 94 84 91 92 93 99 95 96
148 146 148 145 139 133 131 135 132 130 128 129 136 141 142 140 137 134 124 120 114 108 88 83 94 109 116 118 112 123 121 119 114 115 111 98 92 89 99 98 97 100 99
150 146 147 145 141 136 137 132 128 125 124 128 131 137 137 135 129 127 121 118 120 113 99 93 98 110 114 114 111 111 119 119 115 115 108 107 104 101 102 100 101 102 102
153 148 148 146 141 137 131 127 127 128 126 121 120 124 127 125 124 119 115 110 109 109 104 99 94 105 111 112 110 105 100 101 115 115 109 110 107 105 107 106 108 109 107
151 148 148 147 144 138 134 134 137 133 133 127 124 120 124 122 122 121 117 115 110 110 105 105 97 110 103 111 110 108 106 97 112 112 110 111 111 111 112 109 113 114 109
152 149 148 149 149 143 134 136 132 125 124 125 124 125 123 122 122 122 116 114 110 104 105 114 104 106 110 112 102 101 103 101 109 111 109 106 114 104 111 116 117 110 111
155 154 150 151 147 141 137 135 134 133 128 124 125 122 119 119 119 119 114 106 103 105 110 114 116 111 109 107 103 100 98 96 96 105 109 105 108 108 115 116 115 113 107
162 161 157 155 148 143 137 136 137 136 133 129 125 123 118 117 119 116 114 106 99 95 100 111 118 109 98 107 108 100 96 90 91 102 102 99 100 103 102 109 114 115 110
168 168 164 161 152 151 143 141 141 142 144 136 127 124 123 119 117 113 108 103 96 92 89 101 115 114 102 107 113 100 87 79 77 92 99 105 103 96 100 106 107 109 109
171 172 170 166 157 157 150 148 145 145 146 140 133 125 120 120 115 114 104 96 94 92 92 96 111 114 101 99 103 98 81 76 73 89 99 106 99 104 91 98 107 104 101
174 175 174 169 163 159 157 154 151 148 149 144 137 127 123 121 116 110 107 106 99 99 99 104 115 111 96 91 92 95 76 74 74 83 98 106 97 104 98 106 103 102 98
176 176 175 172 166 164 161 156 155 152 151 147 143 136 129 120 112 108 106 99 99 104 112 112 119 117 108 95 85 87 89 76 77 83 104 112 93 104 86 90 102 97 98
179 178 175 174 169 167 163 161 159 155 148 144 144 143 133 125 117 110 117 106 94 118 142 137 128 122 110 91 101 99 87 75 72 82 99 100 97 99 106 108 109 93 106
182 180 177 176 172 170 166 166 164 158 151 149 147 143 140 137 134 129 111 122 107 120 138 153 151 127 116 106 108 113 87 77 71 73 93 105 106 103 98 90 93 81 76
183 182 179 178 175 174 170 167 164 165 166 160 158 151 144 137 120 129 130 122 134 123 146 157 169 134 120 105 111 108 104 83 76 68 73 85 86 90 85 76 81 85 70
185 184 183 180 178 176 174 172 172 170 163 158 156 141 124 132 117 126 138 123 123 142 145 167 158 144 120 92 104 93 103 97 89 73 70 69 77 81 74 58 47 53 67
189 188 186 184 182 178 178 179 180 179 173 163 164 160 135 126 115 114 134 126 146 134 138 150 163 147 126 116 109 106 92 92 101 74 73 71 71 78 63 62 79 76 339
195 192 191 190 187 182 181 182 181 182 187 193 196 185 167 135 143 125 140 158 154 137 128 119 130 139 133 119 113 121 90 84 82 75 63 52 51 53 34 12 15 16 346
200 198 196 194 191 187 186 186 189 194 196 204 203 202 182 159 143 144 142 126 136 136 135 133 126 143 152 137 103 162 143 103 94 98 86 62 42 21 17 7 11 18 10
204 204 202 198 193 191 191 193 197 201 201 206 208 199 207 185 177 151 165 96 143 146 147 164 164 146 121 36 126 110 104 125 124 108 117 78 359 349 2 14 353 302 313
207 206 206 203 199 196 195 197 203 205 206 205 208 213 212 202 205 191 209 190 170 187 172 167 184 198 186 127 158 121 107 141 220 245 285 322 303 297 322 339 346 320 312
208 207 206 207 205 203 203 203 206 212 216 216 210 215 218 223 221 219 229 240 221 220 234 221 189 205 201 218 205 199 219 208 293 282 302 304 292 310 298 312 339 352 348
211 210 209 208 210 209 208 212 215 216 220 219 218 221 232 241 234 235 237 242 246 227 246 214 223 190 199 199 187 198 230 251 335 12 17 345 331 317 317 302 303 323 344
210 212 212 210 210 210 212 213 214 217 223 227 228 231 241 250 250 250 243 239 247 240 248 232 233 233 233 220 218 227 254 277 296 310 318 349 348 339 319 297 286 292 305
210 213 214 212 212 214 215 216 218 222 227 232 234 235 242 248 251 251 252 247 244 252 242 236 250 249 252 233 233 235 258 276 291 311 312 313 311 324 328 314 301 290 289
Wind_Speed_850mb
54 53 46 44 40 37 35 34 30 27 26 27 28 27 25 21 18 16 16 16 14 12 10 8 10 12 12 12 10 13 14 15 19 23 23 22 22 24 24 27 31 29 29
60 52 46 43 38 35 32 29 27 25 24 23 22 21 20 19 18 19 19 17 15 15 15 11 10 12 14 13 10 12 14 16 19 21 20 22 23 22 25 25 28 28 28
58 52 45 42 37 32 28 26 25 24 24 23 23 23 25 23 24 21 19 19 22 18 13 15 16 17 20 19 20 22 21 20 20 22 21 20 24 22 23 25 23 27 26
58 48 46 41 36 30 27 26 24 24 24 24 22 25 25 26 23 22 22 24 19 17 15 22 21 22 24 26 27 25 22 21 22 23 22 25 20 21 22 23 23 25 26
57 51 46 40 34 29 27 27 27 25 24 25 24 25 25 25 26 24 24 23 20 21 18 24 25 28 29 29 27 26 28 22 18 19 20 22 20 21 20 22 22 25 26
59 49 44 38 32 30 29 26 24 23 22 21 22 25 25 25 23 24 24 22 22 22 21 24 25 23 25 24 27 27 25 22 21 21 19 22 19 20 18 21 22 24 22
56 48 44 37 33 32 30 26 27 26 26 25 25 24 24 24 25 25 23 21 20 20 20 23 25 28 26 27 25 24 22 21 23 23 24 20 20 20 19 20 21 22 20
55 49 45 37 33 30 28 27 29 25 25 25 27 25 25 26 28 26 23 20 19 17 18 19 21 23 23 23 23 24 25 23 23 23 23 20 19 17 18 19 19 19 19
51 51 46 37 34 28 26 26 28 24 24 26 25 28 28 29 28 26 25 24 22 21 17 18 22 20 21 19 20 25 24 23 22 21 19 17 18 17 18 17 17 17 18
52 51 45 38 35 29 27 25 26 25 28 25 29 30 30 29 29 26 23 20 21 21 20 18 22 22 19 20 18 20 20 22 19 19 17 18 13 17 16 13 14 15 16
52 51 46 39 37 32 29 26 27 28 28 28 29 28 28 27 25 23 19 17 21 20 21 20 22 22 19 19 19 16 17 18 19 17 16 18 16 17 12 15 14 14 14
59 55 47 40 37 34 31 29 29 29 29 28 29 28 26 23 20 19 16 17 18 18 18 19 20 21 21 19 17 14 15 15 16 16 14 18 14 12 13 15 16 13 12
61 55 49 43 38 34 30 30 29 29 27 27 26 25 22 18 14 13 13 14 17 15 17 18 18 16 16 15 13 12 13 16 14 15 13 15 11 12 11 13 15 8 11
61 56 51 45 41 35 31 29 30 29 28 26 23 21 18 16 15 15 14 13 12 11 14 16 16 13 10 11 12 11 13 16 15 12 12 11 10 12 9 8 8 7 7
63 59 54 48 42 37 33 31 34 32 26 24 23 19 17 12 8 8 7 8 10 12 16 14 10 10 10 10 9 9 10 11 15 16 11 10 10 11 8 5 6 8 7
65 61 56 49 44 39 35 36 36 30 25 24 20 15 13 11 9 8 8 10 9 12 10 11 12 8 9 10 8 9 7 7 9 16 15 8 8 9 8 7 6 7 8
64 60 58 52 47 42 38 41 39 33 27 25 23 16 15 13 12 10 7 8 8 9 10 7 14 13 11 11 11 10 7 7 9 10 15 16 10 10 8 6 5 5 2
63 62 58 54 50 45 42 43 39 37 29 24 20 15 12 9 10 8 10 9 13 12 9 9 15 12 11 10 10 8 8 7 9 8 8 10 10 8 10 7 4 2 3
66 62 60 56 52 47 45 46 40 36 30 24 19 14 10 8 9 9 9 9 15 14 16 17 18 16 10 4 5 7 6 7 7 5 6 6 6 8 7 7 7 3 2
66 63 60 58 54 50 48 48 44 39 33 26 23 17 13 10 8 9 8 5 9 13 14 15 12 10 7 7 5 4 5 6 5 4 5 7 7 7 9 8 8 5 3
68 68 66 62 59 57 55 55 51 44 34 28 24 22 14 13 8 7 6 5 8 11 11 12 8 5 4 2 10 8 5 4 5 3 2 1 3 6 8 6 3 4 7
75 72 71 67 63 62 59 56 54 47 38 28 27 23 20 17 12 7 5 2 7 9 9 8 7 9 5 5 7 4 4 3 4 4 4 4 5 8 7 7 6 6 8
79 78 77 72 68 65 66 58 54 48 42 34 30 27 22 19 16 12 10 6 9 11 7 7 7 12 9 5 12 8 3 2 4 7 7 9 10 9 10 9 7 9 9
79 84 77 74 71 69 65 68 61 53 50 46 37 30 26 21 15 15 14 10 9 11 7 7 5 7 9 5 6 11 7 5 3 4 8 8 7 7 8 9 8 8 9
74 84 84 79 71 69 71 67 60 57 48 42 40 35 35 33 27 20 18 17 13 8 10 7 10 8 8 11 12 11 8 10 13 12 9 9 16 13 9 9 11 11 11
69 81 86 84 80 73 74 72 68 62 55 49 44 41 44 44 39 34 27 23 19 15 11 12 12 12 8 13 16 18 16 12 10 11 12 16 20 16 15 13 12 14 15
Wind_Direction_850mb
145 140 143 141 138 136 135 134 136 135 136 139 144 149 155 156 153 149 142 139 134 117 117 126 142 154 157 151 143 122 106 96 94 98 94 89 84 97 94 93 88 94 96
146 143 145 144 141 139 132 129 132 136 139 139 142 149 152 152 147 136 133 123 115 109 107 105 118 131 145 157 152 131 114 102 102 109 110 94 84 91 92 93 99 95 96
148 146 148 145 139 133 131 135 132 130 128 129 136 141 142 140 137 134 124 120 114 108 88 83 94 109 116 118 112 123 121 119 114 115 111 98 92 89 99 98 97 100 99
150 146 147 145 141 136 137 132 128 125 124 128 131 137 137 135 129 127 121 118 120 113 99 93 98 110 114 114 111 111 119 119 115 115 108 107 104 101 102 100 101 102 102
153 148 148 146 141 137 131 127 127 128 126 121 120 124 127 125 124 119 115 110 109 109 104 99 94 105 111 112 110 105 100 101 115 115 109 110 107 105 107 106 108 109 107
151 148 148 147 144 138 134 134 137 133 133 127 124 120 124 122 122 121 117 115 110 110 105 105 97 110 103 111 110 108 106 97 112 112 110 111 111 111 112 109 113 114 109
152 149 148 149 149 143 134 136 132 125 124 125 124 125 123 122 122 122 116 114 110 104 105 114 104 106 110 112 102 101 103 101 109 111 109 106 114 104 111 116 117 110 111
155 154 150 151 147 141 137 135 134 133 128 124 125 122 119 119 119 119 114 106 103 105 110 114 116 111 109 107 103 100 98 96 96 105 109 105 108 108 115 116 115 113 107
162 161 157 155 148 143 137 136 137 136 133 129 125 123 118 117 119 116 114 106 99 95 100 111 118 109 98 107 108 100 96 90 91 102 102 99 100 103 102 109 114 115 110
168 168 164 161 152 151 143 141 141 142 144 136 127 124 123 119 117 113 108 103 96 92 89 101 115 114 102 107 113 100 87 79 77 92 99 105 103 96 100 106 107 109 109
171 172 170 166 157 157 150 148 145 145 146 140 133 125 120 120 115 114 104 96 94 92 92 96 111 114 101 99 103 98 81 76 73 89 99 106 99 104 91 98 107 104 101
174 175 174 169 163 159 157 154 151 148 149 144 137 127 123 121 116 110 107 106 99 99 99 104 115 111 96 91 92 95 76 74 74 83 98 106 97 104 98 106 103 102 98
176 176 175 172 166 164 161 156 155 152 151 147 143 136 129 120 112 108 106 99 99 104 112 112 119 117 108 95 85 87 89 76 77 83 104 112 93 104 86 90 102 97 98
179 178 175 174 169 167 163 161 159 155 148 144 144 143 133 125 117 110 117 106 94 118 142 137 128 122 110 91 101 99 87 75 72 82 99 100 97 99 106 108 109 93 106
182 180 177 176 172 170 166 166 164 158 151 149 147 143 140 137 134 129 111 122 107 120 138 153 151 127 116 106 108 113 87 77 71 73 93 105 106 103 98 90 93 81 76
183 182 179 178 175 174 170 167 164 165 166 160 158 151 144 137 120 129 130 122 134 123 146 157 169 134 120 105 111 108 104 83 76 68 73 85 86 90 85 76 81 85 70
185 184 183 180 178 176 174 172 172 170 163 158 156 141 124 132 117 126 138 123 123 142 145 167 158 144 120 92 104 93 103 97 89 73 70 69 77 81 74 58 47 53 67
189 188 186 184 182 178 178 179 180 179 173 163 164 160 135 126 115 114 134 126 146 134 138 150 163 147 126 116 109 106 92 92 101 74 73 71 71 78 63 62 79 76 339
195 192 191 190 187 182 181 182 181 182 187 193 196 185 167 135 143 125 140 158 154 137 128 119 130 139 133 119 113 121 90 84 82 75 63 52 51 53 34 12 15 16 346
200 198 196 194 191 187 186 186 189 194 196 204 203 202 182 159 143 144 142 126 136 136 135 133 126 143 152 137 103 162 143 103 94 98 86 62 42 21 17 7 11 18 10
204 204 202 198 193 191 191 193 197 201 201 206 208 199 207 185 177 151 165 96 143 146 147 164 164 146 121 36 126 110 104 125 124 108 117 78 359 349 2 14 353 302 313
207 206 206 203 199 196 195 197 203 205 206 205 208 213 212 202 205 191 209 190 170 187 172 167 184 198 186 127 158 121 107 141 220 245 285 322 303 297 322 339 346 320 312
208 207 206 207 205 203 203 203 206 212 216 216 210 215 218 223 221 219 229 240 221 220 234 221 189 205 201 218 205 199 219 208 293 282 302 304 292 310 298 312 339 352 348
211 210 209 208 210 209 208 212 215 216 220 219 218 221 232 241 234 235 237 242 246 227 246 214 223 190 199 199 187 198 230 251 335 12 17 345 331 317 317 302 303 323 344
210 212 212 210 210 210 212 213 214 217 223 227 228 231 241 250 250 250 243 239 247 240 248 232 233 233 233 220 218 227 254 277 296 310 318 349 348 339 319 297 286 292 305
210 213 214 212 212 214 215 216 218 222 227 232 234 235 242 248 251 251 252 247 244 252 242 236 250 249 252 233 233 235 258 276 291 311 312 313 311 324 328 314 301 290 289